Weather History for Poplar Bluff, MO

Change the Weather History Date:

Tuesday, June 25, 2013

  Actual Average Record
Temperature  
Mean Temperature 84 °F -  
Max Temperature 95 °F 89 °F 104 °F (1944)
Min Temperature 75 °F 66 °F 50 °F (1956)
Cooling Degree Days 19    
Growing Degree Days 34 (Base 50)    
Moisture  
Dew Point 71 °F    
Average Humidity 63    
Maximum Humidity 85    
Minimum Humidity 46    
Precipitation  
Precipitation 0.00 in - - ()
Sea Level Pressure  
Sea Level Pressure 29.94 in    
Wind  
Wind Speed 9 mph (SSW)    
Max Wind Speed 16 mph    
Max Gust Speed 22 mph    
Visibility 10 miles    
Events      
Averages and records for this station are not official NWS values.
T = Trace of Precipitation, MM = Missing Value Source: NWS Daily Summary

Daily Weather History Graph

Daily Weather History Graph

Search for Another Location

Airport:

Trip Planner

Search our weather history database for the weather conditions in past years. The results will help you decide how hot, cold, wet, or windy it might be!

Date:

Astronomy

Jun. 25, 2013 Rise Set
Actual Time 5:43 AM CDT 8:24 PM CDT
Civil Twilight 5:13 AM CDT 8:54 PM CDT
Nautical Twilight 4:34 AM CDT 9:33 PM CDT
Astronomical Twilight 3:51 AM CDT 10:16 PM CDT
Moon 10:14 PM CDT (6/25) 8:19 AM CDT (6/25)
Length of Visible Light 15h 41m
Length of Day
14h 40m
Waning Gibbous, 92% of the Moon is Illuminated
Jun 25
Waning Gibbous
Jun 29
Last Quarter
Jul 8
New
Jul 15
First Quarter
Jul 22
Full

Hourly Weather History & Observations

Time (CDT) Temp. Heat Index Dew Point Humidity Pressure Visibility Wind Dir Wind Speed Gust Speed Precip Events Conditions
12:53 AM 79.0 °F - 69.1 °F 72% 29.97 in 10.0 mi SSW 6.9 mph - N/A   Clear
1:53 AM 80.1 °F 83.2 °F 70.0 °F 71% 29.97 in 10.0 mi SSW 5.8 mph - N/A   Clear
2:53 AM 79.0 °F - 71.1 °F 77% 29.97 in 10.0 mi South 5.8 mph - N/A   Clear
3:53 AM 78.1 °F - 71.1 °F 79% 29.97 in 9.0 mi South 5.8 mph - N/A   Clear
4:53 AM 77.0 °F - 71.1 °F 82% 29.97 in 9.0 mi South 4.6 mph - N/A   Clear
5:53 AM 75.9 °F - 71.1 °F 85% 29.99 in 8.0 mi SSE 3.5 mph - N/A   Clear
6:53 AM 78.1 °F - 72.0 °F 81% 29.99 in 8.0 mi South 3.5 mph - N/A   Clear
7:53 AM 82.0 °F 87.4 °F 73.0 °F 74% 30.00 in 10.0 mi SW 8.1 mph - N/A   Clear
8:53 AM 84.0 °F 90.2 °F 73.0 °F 69% 30.00 in 10.0 mi SSW 12.7 mph - N/A   Clear
9:53 AM 86.0 °F 93.0 °F 73.0 °F 65% 29.99 in 10.0 mi SSW 13.8 mph - N/A   Clear
10:53 AM 88.0 °F 95.6 °F 73.0 °F 61% 29.99 in 10.0 mi SW 13.8 mph - N/A   Clear
11:53 AM 90.0 °F 96.9 °F 72.0 °F 55% 29.99 in 10.0 mi SSW 13.8 mph - N/A   Clear
12:53 PM 91.0 °F 98.2 °F 72.0 °F 53% 29.98 in 10.0 mi SSW 10.4 mph - N/A   Mostly Cloudy
1:53 PM 93.9 °F 100.8 °F 71.1 °F 47% 29.96 in 10.0 mi SSW 16.1 mph - N/A   Clear
2:53 PM 93.9 °F 100.3 °F 70.0 °F 46% 29.95 in 10.0 mi SSW 15.0 mph - N/A   Clear
3:53 PM 93.9 °F 100.3 °F 70.0 °F 46% 29.93 in 10.0 mi SSW 15.0 mph - N/A   Partly Cloudy
4:53 PM 93.0 °F 99.0 °F 70.0 °F 47% 29.90 in 10.0 mi SSW 13.8 mph 20.7 mph N/A   Partly Cloudy
5:53 PM 91.0 °F 96.6 °F 70.0 °F 50% 29.87 in 10.0 mi South 13.8 mph 21.9 mph N/A   Clear
6:53 PM 89.1 °F 94.1 °F 70.0 °F 53% 29.86 in 10.0 mi South 13.8 mph - N/A   Clear
7:53 PM 88.0 °F 92.9 °F 70.0 °F 55% 29.84 in 10.0 mi South 12.7 mph - N/A   Clear
8:53 PM 86.0 °F 91.5 °F 71.1 °F 61% 29.85 in 10.0 mi South 10.4 mph - N/A   Clear
9:53 PM 84.9 °F 90.1 °F 71.1 °F 63% 29.87 in 10.0 mi South 8.1 mph - N/A   Clear
10:53 PM 82.9 °F 87.0 °F 70.0 °F 65% 29.88 in 10.0 mi South 9.2 mph - N/A   Clear
11:53 PM 82.9 °F 86.5 °F 69.1 °F 63% 29.90 in 10.0 mi SSW 6.9 mph - N/A   Clear